Data supplied by UK-AIR on 1/4/2020
All Data GMT hour ending 
Status: R =Ratified P=Provisional,P*=As supplied
,,Plymouth Tavistock Road,,,,,,,,,,,,,,,,,,,,,,,
Date,time,"Nitric oxide",status,unit,"Nitrogen dioxide",status,unit,"Nitrogen oxides as nitrogen dioxide",status,unit
 
01-01-2019,01:00,5.54736,R,ugm-3,17.97871,R,ugm-3,26.48455,R,ugm-3
01-01-2019,02:00,5.49913,R,ugm-3,19.17174,R,ugm-3,27.60361,R,ugm-3
01-01-2019,03:00,5.06498,R,ugm-3,16.90919,R,ugm-3,24.67539,R,ugm-3
01-01-2019,04:00,3.94345,R,ugm-3,11.52279,R,ugm-3,17.56933,R,ugm-3
01-01-2019,05:00,2.46014,R,ugm-3,7.75422,R,ugm-3,11.52637,R,ugm-3
01-01-2019,06:00,2.49631,R,ugm-3,10.21664,R,ugm-3,14.04427,R,ugm-3
01-01-2019,07:00,2.42396,R,ugm-3,14.97171,R,ugm-3,18.68839,R,ugm-3
01-01-2019,08:00,4.01581,R,ugm-3,19.74888,R,ugm-3,25.90636,R,ugm-3
01-01-2019,09:00,3.72638,R,ugm-3,16.38784,R,ugm-3,22.10154,R,ugm-3
01-01-2019,10:00,5.49913,R,ugm-3,20.32811,R,ugm-3,28.75998,R,ugm-3
01-01-2019,11:00,6.51212,R,ugm-3,19.27845,R,ugm-3,29.26356,R,ugm-3
01-01-2019,12:00,8.10397,R,ugm-3,21.87344,R,ugm-3,34.29935,R,ugm-3
01-01-2019,13:00,10.60029,R,ugm-3,22.13040,R,ugm-3,38.38394,R,ugm-3
01-01-2019,14:00,13.71163,R,ugm-3,23.12292,R,ugm-3,44.14713,R,ugm-3
01-01-2019,15:00,11.97507,R,ugm-3,21.25340,R,ugm-3,39.61491,R,ugm-3
01-01-2019,16:00,14.76081,R,ugm-3,27.27739,R,ugm-3,49.91032,R,ugm-3
01-01-2019,17:00,12.59010,R,ugm-3,30.82958,R,ugm-3,50.13413,R,ugm-3
01-01-2019,18:00,8.97226,R,ugm-3,30.55772,R,ugm-3,44.31499,R,ugm-3
01-01-2019,19:00,9.62347,R,ugm-3,29.89493,R,ugm-3,44.65071,R,ugm-3
01-01-2019,20:00,16.44914,R,ugm-3,39.53493,R,ugm-3,64.75658,R,ugm-3
01-01-2019,21:00,14.97788,R,ugm-3,33.71490,R,ugm-3,56.68066,R,ugm-3
01-01-2019,22:00,15.44820,R,ugm-3,32.99375,R,ugm-3,56.68066,R,ugm-3
01-01-2019,23:00,10.81736,R,ugm-3,23.69997,R,ugm-3,40.28635,R,ugm-3
01-01-2019,24:00,5.57148,R,ugm-3,13.61467,R,ugm-3,22.15749,R,ugm-3
02-01-2019,01:00,2.74952,R,ugm-3,8.39812,R,ugm-3,12.61399,R,ugm-3
02-01-2019,02:00,0.91651,R,ugm-3,4.64047,R,ugm-3,6.04576,R,ugm-3
02-01-2019,03:00,0.97680,R,ugm-3,5.05183,R,ugm-3,6.54957,R,ugm-3
02-01-2019,04:00,1.26623,R,ugm-3,7.01516,R,ugm-3,8.95668,R,ugm-3
02-01-2019,05:00,0.57885,R,ugm-3,4.20656,R,ugm-3,5.09411,R,ugm-3
02-01-2019,06:00,1.08534,R,ugm-3,5.10933,R,ugm-3,6.77349,R,ugm-3
02-01-2019,07:00,2.13450,R,ugm-3,5.62785,R,ugm-3,8.90070,R,ugm-3
02-01-2019,08:00,4.99255,R,ugm-3,13.22512,R,ugm-3,20.88026,R,ugm-3
02-01-2019,09:00,4.34135,R,ugm-3,12.32032,R,ugm-3,18.97697,R,ugm-3
02-01-2019,10:00,4.12428,R,ugm-3,10.69388,R,ugm-3,17.01769,R,ugm-3
02-01-2019,11:00,4.52224,R,ugm-3,9.97173,R,ugm-3,16.90573,R,ugm-3
02-01-2019,12:00,5.06491,R,ugm-3,10.53913,R,ugm-3,18.30521,R,ugm-3
02-01-2019,13:00,4.19664,R,ugm-3,8.73562,R,ugm-3,15.17038,R,ugm-3
02-01-2019,14:00,4.55842,R,ugm-3,8.96461,R,ugm-3,15.95409,R,ugm-3
02-01-2019,15:00,5.24580,R,ugm-3,10.76559,R,ugm-3,18.80903,R,ugm-3
02-01-2019,16:00,4.34135,R,ugm-3,11.53662,R,ugm-3,18.19326,R,ugm-3
02-01-2019,17:00,4.59459,R,ugm-3,14.39511,R,ugm-3,21.44005,R,ugm-3
02-01-2019,18:00,4.23281,R,ugm-3,18.75642,R,ugm-3,25.24664,R,ugm-3
02-01-2019,19:00,3.76250,R,ugm-3,20.82105,R,ugm-3,26.59014,R,ugm-3
02-01-2019,20:00,5.53522,R,ugm-3,20.51003,R,ugm-3,28.99725,R,ugm-3
02-01-2019,21:00,1.51947,R,ugm-3,9.92963,R,ugm-3,12.25945,R,ugm-3
02-01-2019,22:00,1.66418,R,ugm-3,11.16320,R,ugm-3,13.71491,R,ugm-3
02-01-2019,23:00,1.37476,R,ugm-3,9.92760,R,ugm-3,12.03554,R,ugm-3
02-01-2019,24:00,0.94063,R,ugm-3,6.95462,R,ugm-3,8.39689,R,ugm-3
03-01-2019,01:00,0.82002,R,ugm-3,6.65806,R,ugm-3,7.91541,R,ugm-3
03-01-2019,02:00,0.82002,R,ugm-3,8.07686,R,ugm-3,9.33420,R,ugm-3
03-01-2019,03:00,0.83208,R,ugm-3,8.69309,R,ugm-3,9.96893,R,ugm-3
03-01-2019,04:00,0.65119,R,ugm-3,9.02646,R,ugm-3,10.02494,R,ugm-3
03-01-2019,05:00,1.15768,R,ugm-3,14.91448,R,ugm-3,16.68956,R,ugm-3
03-01-2019,06:00,1.66416,R,ugm-3,13.68984,R,ugm-3,16.24151,R,ugm-3
03-01-2019,07:00,3.43685,R,ugm-3,18.75648,R,ugm-3,24.02624,R,ugm-3
03-01-2019,08:00,8.53785,R,ugm-3,33.11312,R,ugm-3,46.20431,R,ugm-3
03-01-2019,09:00,25.90298,R,ugm-3,51.51516,R,ugm-3,91.23251,R,ugm-3
03-01-2019,10:00,6.83752,R,ugm-3,25.24728,R,ugm-3,35.73133,R,ugm-3
03-01-2019,11:00,6.22250,R,ugm-3,20.75779,R,ugm-3,30.29883,R,ugm-3
03-01-2019,12:00,5.46278,R,ugm-3,20.46655,R,ugm-3,28.84269,R,ugm-3
03-01-2019,13:00,5.17336,R,ugm-3,18.50209,R,ugm-3,26.43446,R,ugm-3
03-01-2019,14:00,4.05186,R,ugm-3,16.02131,R,ugm-3,22.23407,R,ugm-3
03-01-2019,15:00,4.84776,R,ugm-3,15.80903,R,ugm-3,23.24217,R,ugm-3
03-01-2019,16:00,4.37746,R,ugm-3,19.66645,R,ugm-3,26.37846,R,ugm-3
03-01-2019,17:00,5.82455,R,ugm-3,25.62437,R,ugm-3,34.55522,R,ugm-3
03-01-2019,18:00,6.29486,R,ugm-3,27.36747,R,ugm-3,37.01945,R,ugm-3
03-01-2019,19:00,4.34128,R,ugm-3,21.68210,R,ugm-3,28.33864,R,ugm-3
03-01-2019,20:00,4.08804,R,ugm-3,19.38215,R,ugm-3,25.65039,R,ugm-3
03-01-2019,21:00,2.24300,R,ugm-3,16.10661,R,ugm-3,19.54582,R,ugm-3
03-01-2019,22:00,3.07508,R,ugm-3,17.96707,R,ugm-3,22.68211,R,ugm-3
03-01-2019,23:00,2.74948,R,ugm-3,15.16200,R,ugm-3,19.37781,R,ugm-3
03-01-2019,24:00,0.83208,R,ugm-3,7.40497,R,ugm-3,8.68081,R,ugm-3
04-01-2019,01:00,0.86824,R,ugm-3,6.88662,R,ugm-3,8.21791,R,ugm-3
04-01-2019,02:00,0.62706,R,ugm-3,5.08988,R,ugm-3,6.05137,R,ugm-3
04-01-2019,03:00,0.83207,R,ugm-3,5.33587,R,ugm-3,6.61168,R,ugm-3
04-01-2019,04:00,0.83207,R,ugm-3,5.16777,R,ugm-3,6.44359,R,ugm-3
04-01-2019,05:00,0.39795,R,ugm-3,4.76882,R,ugm-3,5.37899,R,ugm-3
04-01-2019,06:00,1.30237,R,ugm-3,5.73538,R,ugm-3,7.73231,R,ugm-3
04-01-2019,07:00,3.21973,R,ugm-3,13.27328,R,ugm-3,18.21014,R,ugm-3
04-01-2019,08:00,17.65427,R,ugm-3,36.69400,R,ugm-3,63.76350,R,ugm-3
04-01-2019,09:00,8.13978,R,ugm-3,31.27955,R,ugm-3,43.76037,R,ugm-3
04-01-2019,10:00,5.42652,R,ugm-3,17.00556,R,ugm-3,25.32610,R,ugm-3
04-01-2019,11:00,6.15005,R,ugm-3,14.15918,R,ugm-3,23.58914,R,ugm-3
04-01-2019,12:00,5.28181,R,ugm-3,13.24922,R,ugm-3,21.34789,R,ugm-3
04-01-2019,13:00,3.83474,R,ugm-3,11.32173,R,ugm-3,17.20158,R,ugm-3
04-01-2019,14:00,3.72621,R,ugm-3,12.94495,R,ugm-3,18.65839,R,ugm-3
04-01-2019,15:00,4.66681,R,ugm-3,17.10584,R,ugm-3,24.26151,R,ugm-3
04-01-2019,16:00,4.30504,R,ugm-3,17.66054,R,ugm-3,24.26151,R,ugm-3
04-01-2019,17:00,8.93567,R,ugm-3,33.64520,R,ugm-3,47.34636,R,ugm-3
04-01-2019,18:00,95.75996,R,ugm-3,91.91905,R,ugm-3,238.74894,R,ugm-3
04-01-2019,19:00,40.48183,R,ugm-3,75.87755,R,ugm-3,137.94881,R,ugm-3
04-01-2019,20:00,51.80516,R,ugm-3,81.03988,R,ugm-3,160.47335,R,ugm-3
04-01-2019,21:00,53.10752,R,ugm-3,77.19392,R,ugm-3,158.62432,R,ugm-3
04-01-2019,22:00,46.41482,R,ugm-3,66.10804,R,ugm-3,137.27644,R,ugm-3
04-01-2019,23:00,36.24914,R,ugm-3,64.66171,R,ugm-3,120.24295,R,ugm-3
04-01-2019,24:00,8.64625,R,ugm-3,32.35199,R,ugm-3,45.60940,R,ugm-3
05-01-2019,01:00,4.34115,R,ugm-3,28.02437,R,ugm-3,34.68071,R,ugm-3
05-01-2019,02:00,1.59175,R,ugm-3,10.48987,R,ugm-3,12.93052,R,ugm-3
05-01-2019,03:00,1.04911,R,ugm-3,8.76196,R,ugm-3,10.37058,R,ugm-3
05-01-2019,04:00,6.47555,R,ugm-3,22.75230,R,ugm-3,32.68133,R,ugm-3
05-01-2019,05:00,3.79851,R,ugm-3,18.05607,R,ugm-3,23.88036,R,ugm-3
05-01-2019,06:00,18.41370,R,ugm-3,42.90261,R,ugm-3,71.13656,R,ugm-3
05-01-2019,07:00,24.70837,R,ugm-3,44.85476,R,ugm-3,82.74039,R,ugm-3
05-01-2019,08:00,48.07821,R,ugm-3,54.14752,R,ugm-3,127.86642,R,ugm-3
05-01-2019,09:00,64.68310,R,ugm-3,65.01209,R,ugm-3,164.19147,R,ugm-3
05-01-2019,10:00,56.86904,R,ugm-3,56.86897,R,ugm-3,144.06694,R,ugm-3
05-01-2019,11:00,16.27930,R,ugm-3,31.82467,R,ugm-3,56.78592,R,ugm-3
05-01-2019,12:00,12.66168,R,ugm-3,33.55972,R,ugm-3,52.97403,R,ugm-3
05-01-2019,13:00,8.03112,R,ugm-3,29.89684,R,ugm-3,42.21105,R,ugm-3
05-01-2019,14:00,4.81144,R,ugm-3,27.04167,R,ugm-3,34.41911,R,ugm-3
05-01-2019,15:00,6.51172,R,ugm-3,35.02941,R,ugm-3,45.01391,R,ugm-3
05-01-2019,16:00,7.12672,R,ugm-3,45.97055,R,ugm-3,56.89803,R,ugm-3
05-01-2019,17:00,6.04143,R,ugm-3,52.84795,R,ugm-3,62.11135,R,ugm-3
05-01-2019,18:00,7.41613,R,ugm-3,53.03846,R,ugm-3,64.40970,R,ugm-3
05-01-2019,19:00,8.42906,R,ugm-3,50.70051,R,ugm-3,63.62490,R,ugm-3
05-01-2019,20:00,7.70554,R,ugm-3,44.80276,R,ugm-3,56.61775,R,ugm-3
05-01-2019,21:00,19.13723,R,ugm-3,49.30488,R,ugm-3,78.64822,R,ugm-3
05-01-2019,22:00,27.45776,R,ugm-3,60.37121,R,ugm-3,102.47252,R,ugm-3
05-01-2019,23:00,22.06750,R,ugm-3,53.27649,R,ugm-3,87.11285,R,ugm-3
05-01-2019,24:00,15.62813,R,ugm-3,41.62409,R,ugm-3,65.58690,R,ugm-3
06-01-2019,01:00,13.31265,R,ugm-3,35.37160,R,ugm-3,55.78404,R,ugm-3
06-01-2019,02:00,16.97845,R,ugm-3,41.11697,R,ugm-3,67.15023,R,ugm-3
06-01-2019,03:00,9.11627,R,ugm-3,27.80386,R,ugm-3,41.78195,R,ugm-3
06-01-2019,04:00,5.02842,R,ugm-3,21.73352,R,ugm-3,29.44366,R,ugm-3
06-01-2019,05:00,5.35400,R,ugm-3,21.45864,R,ugm-3,29.66799,R,ugm-3
06-01-2019,06:00,10.88888,R,ugm-3,38.04111,R,ugm-3,54.73716,R,ugm-3
06-01-2019,07:00,15.62789,R,ugm-3,36.71954,R,ugm-3,60.68197,R,ugm-3
06-01-2019,08:00,26.01031,R,ugm-3,49.17812,R,ugm-3,89.06005,R,ugm-3
06-01-2019,09:00,26.62530,R,ugm-3,42.57076,R,ugm-3,83.39565,R,ugm-3
06-01-2019,10:00,14.61497,R,ugm-3,35.24417,R,ugm-3,57.65348,R,ugm-3
06-01-2019,11:00,7.16278,R,ugm-3,29.84575,R,ugm-3,40.82854,R,ugm-3
06-01-2019,12:00,20.18603,R,ugm-3,38.42338,R,ugm-3,69.37486,R,ugm-3
06-01-2019,13:00,13.24030,R,ugm-3,37.29589,R,ugm-3,57.59740,R,ugm-3
06-01-2019,14:00,28.32555,R,ugm-3,54.65752,R,ugm-3,98.08943,R,ugm-3
06-01-2019,15:00,29.37465,R,ugm-3,53.89018,R,ugm-3,98.93068,R,ugm-3
06-01-2019,16:00,54.76998,R,ugm-3,62.17324,R,ugm-3,146.15270,R,ugm-3
06-01-2019,17:00,54.73380,R,ugm-3,61.61179,R,ugm-3,145.53578,R,ugm-3
06-01-2019,18:00,58.45989,R,ugm-3,68.06857,R,ugm-3,157.70583,R,ugm-3
06-01-2019,19:00,70.28934,R,ugm-3,70.17636,R,ugm-3,177.95184,R,ugm-3
06-01-2019,20:00,60.16015,R,ugm-3,69.05087,R,ugm-3,161.29515,R,ugm-3
06-01-2019,21:00,51.58651,R,ugm-3,61.10966,R,ugm-3,140.20788,R,ugm-3
06-01-2019,22:00,54.15499,R,ugm-3,59.52688,R,ugm-3,142.56338,R,ugm-3
06-01-2019,23:00,41.27645,R,ugm-3,53.69979,R,ugm-3,116.98946,R,ugm-3
06-01-2019,24:00,17.79843,R,ugm-3,38.94365,R,ugm-3,66.23420,R,ugm-3
07-01-2019,01:00,9.11613,R,ugm-3,32.33086,R,ugm-3,46.30874,R,ugm-3
07-01-2019,02:00,7.52443,R,ugm-3,28.18797,R,ugm-3,39.72526,R,ugm-3
07-01-2019,03:00,5.89655,R,ugm-3,20.80882,R,ugm-3,29.85006,R,ugm-3
07-01-2019,04:00,4.37719,R,ugm-3,19.49137,R,ugm-3,26.20296,R,ugm-3
07-01-2019,05:00,5.71567,R,ugm-3,20.41284,R,ugm-3,29.17675,R,ugm-3
07-01-2019,06:00,20.07719,R,ugm-3,35.59250,R,ugm-3,66.37710,R,ugm-3
07-01-2019,07:00,38.56268,R,ugm-3,49.77920,R,ugm-3,108.90782,R,ugm-3
07-01-2019,08:00,59.97835,R,ugm-3,68.45048,R,ugm-3,160.41600,R,ugm-3
07-01-2019,09:00,62.94471,R,ugm-3,68.22253,R,ugm-3,164.73640,R,ugm-3
07-01-2019,10:00,52.57451,R,ugm-3,64.22324,R,ugm-3,144.83637,R,ugm-3
07-01-2019,11:00,26.55254,R,ugm-3,42.94539,R,ugm-3,83.65871,R,ugm-3
07-01-2019,12:00,15.70000,R,ugm-3,30.18453,R,ugm-3,54.25753,R,ugm-3
07-01-2019,13:00,13.52950,R,ugm-3,25.37677,R,ugm-3,46.12171,R,ugm-3
07-01-2019,14:00,13.20392,R,ugm-3,26.43707,R,ugm-3,46.68280,R,ugm-3
07-01-2019,15:00,15.12120,R,ugm-3,28.82765,R,ugm-3,52.01316,R,ugm-3
07-01-2019,16:00,19.31752,R,ugm-3,32.99801,R,ugm-3,62.61779,R,ugm-3
07-01-2019,17:00,23.40530,R,ugm-3,33.91213,R,ugm-3,69.79976,R,ugm-3
07-01-2019,18:00,20.43894,R,ugm-3,31.27851,R,ugm-3,62.61779,R,ugm-3
07-01-2019,19:00,14.10830,R,ugm-3,28.24860,R,ugm-3,49.88102,R,ugm-3
07-01-2019,20:00,10.05668,R,ugm-3,18.52599,R,ugm-3,33.94602,R,ugm-3
07-01-2019,21:00,8.39263,R,ugm-3,15.63492,R,ugm-3,28.50344,R,ugm-3
07-01-2019,22:00,5.06452,R,ugm-3,9.12336,R,ugm-3,16.88885,R,ugm-3
07-01-2019,23:00,4.81129,R,ugm-3,8.72611,R,ugm-3,16.10332,R,ugm-3
07-01-2019,24:00,6.14977,R,ugm-3,9.53537,R,ugm-3,18.96489,R,ugm-3
08-01-2019,01:00,1.83285,R,ugm-3,3.77620,R,ugm-3,6.58652,R,ugm-3
08-01-2019,02:00,1.39875,R,ugm-3,2.87002,R,ugm-3,5.01474,R,ugm-3
08-01-2019,03:00,1.88108,R,ugm-3,3.40285,R,ugm-3,6.28713,R,ugm-3
08-01-2019,04:00,1.12141,R,ugm-3,2.99588,R,ugm-3,4.71535,R,ugm-3
08-01-2019,05:00,2.09812,R,ugm-3,4.52957,R,ugm-3,7.74664,R,ugm-3
08-01-2019,06:00,4.23242,R,ugm-3,9.90183,R,ugm-3,16.39145,R,ugm-3
08-01-2019,07:00,10.34593,R,ugm-3,24.72215,R,ugm-3,40.58568,R,ugm-3
08-01-2019,08:00,25.21367,R,ugm-3,45.71064,R,ugm-3,84.37107,R,ugm-3
08-01-2019,09:00,25.72012,R,ugm-3,45.32705,R,ugm-3,84.76401,R,ugm-3
08-01-2019,10:00,14.57835,R,ugm-3,29.01046,R,ugm-3,51.36362,R,ugm-3
08-01-2019,11:00,15.15714,R,ugm-3,25.87759,R,ugm-3,49.11822,R,ugm-3
08-01-2019,12:00,14.79540,R,ugm-3,22.55894,R,ugm-3,45.24490,R,ugm-3
08-01-2019,13:00,14.32513,R,ugm-3,22.66252,R,ugm-3,44.62741,R,ugm-3
08-01-2019,14:00,16.53178,R,ugm-3,25.11709,R,ugm-3,50.46546,R,ugm-3
08-01-2019,15:00,19.46192,R,ugm-3,27.24821,R,ugm-3,57.08940,R,ugm-3
08-01-2019,16:00,15.44654,R,ugm-3,28.85810,R,ugm-3,52.54246,R,ugm-3
08-01-2019,17:00,19.57044,R,ugm-3,35.33368,R,ugm-3,65.34126,R,ugm-3
08-01-2019,18:00,16.17003,R,ugm-3,32.12730,R,ugm-3,56.92100,R,ugm-3
08-01-2019,19:00,9.98418,R,ugm-3,34.48298,R,ugm-3,49.79184,R,ugm-3
08-01-2019,20:00,17.72554,R,ugm-3,49.16497,R,ugm-3,76.34375,R,ugm-3
08-01-2019,21:00,9.07982,R,ugm-3,37.55370,R,ugm-3,51.47589,R,ugm-3
08-01-2019,22:00,32.77416,R,ugm-3,55.67394,R,ugm-3,105.92695,R,ugm-3
08-01-2019,23:00,34.72758,R,ugm-3,52.84713,R,ugm-3,106.09535,R,ugm-3
08-01-2019,24:00,8.10310,R,ugm-3,24.68072,R,ugm-3,37.10531,R,ugm-3
09-01-2019,01:00,12.49209,R,ugm-3,32.13952,R,ugm-3,51.29379,R,ugm-3
09-01-2019,02:00,3.85856,R,ugm-3,18.12057,R,ugm-3,24.03695,R,ugm-3
09-01-2019,03:00,1.37461,R,ugm-3,7.49584,R,ugm-3,9.60355,R,ugm-3
09-01-2019,04:00,3.18331,R,ugm-3,10.45096,R,ugm-3,15.33198,R,ugm-3
09-01-2019,05:00,10.16490,R,ugm-3,18.33534,R,ugm-3,33.92130,R,ugm-3
09-01-2019,06:00,20.65536,R,ugm-3,41.95607,R,ugm-3,73.62718,R,ugm-3
09-01-2019,07:00,15.08456,R,ugm-3,43.47771,R,ugm-3,66.60705,R,ugm-3
09-01-2019,08:00,93.98008,R,ugm-3,88.23762,R,ugm-3,232.33840,R,ugm-3
09-01-2019,09:00,83.30875,R,ugm-3,86.74088,R,ugm-3,214.47918,R,ugm-3
09-01-2019,10:00,16.44712,R,ugm-3,49.43824,R,ugm-3,74.65680,R,ugm-3
09-01-2019,11:00,18.55727,R,ugm-3,37.47903,R,ugm-3,65.93311,R,ugm-3
09-01-2019,12:00,,,,,,,,,
09-01-2019,13:00,,,,,,,,,
09-01-2019,14:00,15.98891,R,ugm-3,26.14131,R,ugm-3,50.65730,R,ugm-3
09-01-2019,15:00,13.05882,R,ugm-3,25.41108,R,ugm-3,45.43432,R,ugm-3
09-01-2019,16:00,20.32979,R,ugm-3,36.55835,R,ugm-3,67.73027,R,ugm-3
09-01-2019,17:00,37.36775,R,ugm-3,58.50773,R,ugm-3,115.80416,R,ugm-3
09-01-2019,18:00,8.93498,R,ugm-3,39.09131,R,ugm-3,52.79142,R,ugm-3
09-01-2019,19:00,9.18820,R,ugm-3,39.26465,R,ugm-3,53.35303,R,ugm-3
09-01-2019,20:00,38.67002,R,ugm-3,68.92255,R,ugm-3,128.21575,R,ugm-3
09-01-2019,21:00,25.57503,R,ugm-3,57.66338,R,ugm-3,96.87787,R,ugm-3
09-01-2019,22:00,31.29052,R,ugm-3,55.24594,R,ugm-3,103.22407,R,ugm-3
09-01-2019,23:00,10.81603,R,ugm-3,37.38646,R,ugm-3,53.97080,R,ugm-3
09-01-2019,24:00,6.29428,R,ugm-3,23.65243,R,ugm-3,33.30352,R,ugm-3
10-01-2019,01:00,2.26999,R,ugm-3,13.68788,R,ugm-3,17.16849,R,ugm-3
10-01-2019,02:00,6.85828,R,ugm-3,18.49811,R,ugm-3,29.01399,R,ugm-3
10-01-2019,03:00,7.60689,R,ugm-3,16.73174,R,ugm-3,28.39548,R,ugm-3
10-01-2019,04:00,10.75832,R,ugm-3,21.90832,R,ugm-3,38.40418,R,ugm-3
10-01-2019,05:00,8.40380,R,ugm-3,17.81520,R,ugm-3,30.70085,R,ugm-3
10-01-2019,06:00,27.27614,R,ugm-3,33.57981,R,ugm-3,75.40264,R,ugm-3
10-01-2019,07:00,64.51368,R,ugm-3,56.32774,R,ugm-3,155.24734,R,ugm-3
10-01-2019,08:00,121.92759,R,ugm-3,83.90044,R,ugm-3,270.85347,R,ugm-3
10-01-2019,09:00,116.27676,R,ugm-3,86.71715,R,ugm-3,265.00569,R,ugm-3
10-01-2019,10:00,130.58496,R,ugm-3,87.10099,R,ugm-3,287.32847,R,ugm-3
10-01-2019,11:00,72.12057,R,ugm-3,63.16324,R,ugm-3,173.74657,R,ugm-3
10-01-2019,12:00,38.28802,R,ugm-3,37.61223,R,ugm-3,96.31970,R,ugm-3
10-01-2019,13:00,27.02257,R,ugm-3,31.15717,R,ugm-3,72.59120,R,ugm-3
10-01-2019,14:00,26.29811,R,ugm-3,33.78617,R,ugm-3,74.10938,R,ugm-3
10-01-2019,15:00,24.23338,R,ugm-3,35.04027,R,ugm-3,72.19760,R,ugm-3
10-01-2019,16:00,35.64372,R,ugm-3,47.12094,R,ugm-3,101.77388,R,ugm-3
10-01-2019,17:00,50.64016,R,ugm-3,55.89592,R,ugm-3,133.54307,R,ugm-3
10-01-2019,18:00,26.40678,R,ugm-3,41.49156,R,ugm-3,81.98139,R,ugm-3
10-01-2019,19:00,18.18409,R,ugm-3,36.27502,R,ugm-3,64.15691,R,ugm-3
10-01-2019,20:00,19.12590,R,ugm-3,37.92352,R,ugm-3,67.24948,R,ugm-3
10-01-2019,21:00,21.44419,R,ugm-3,33.63788,R,ugm-3,66.51851,R,ugm-3
10-01-2019,22:00,15.97447,R,ugm-3,25.38098,R,ugm-3,49.87482,R,ugm-3
10-01-2019,23:00,12.09858,R,ugm-3,18.72871,R,ugm-3,37.27960,R,ugm-3
10-01-2019,24:00,6.84620,R,ugm-3,14.46816,R,ugm-3,24.96553,R,ugm-3
11-01-2019,01:00,3.38544,R,ugm-3,6.96905,R,ugm-3,12.15999,R,ugm-3
11-01-2019,02:00,6.96433,R,ugm-3,9.73828,R,ugm-3,20.41677,R,ugm-3
11-01-2019,03:00,4.28016,R,ugm-3,7.39864,R,ugm-3,13.96147,R,ugm-3
11-01-2019,04:00,4.38898,R,ugm-3,8.24512,R,ugm-3,14.97480,R,ugm-3
11-01-2019,05:00,7.83488,R,ugm-3,14.16445,R,ugm-3,26.17775,R,ugm-3
11-01-2019,06:00,26.76916,R,ugm-3,17.84040,R,ugm-3,58.88587,R,ugm-3
11-01-2019,07:00,48.71406,R,ugm-3,21.51643,R,ugm-3,96.21028,R,ugm-3
11-01-2019,08:00,64.16617,R,ugm-3,24.67683,R,ugm-3,123.06358,R,ugm-3
11-01-2019,09:00,56.73030,R,ugm-3,31.57465,R,ugm-3,118.55989,R,ugm-3
11-01-2019,10:00,38.08620,R,ugm-3,30.83152,R,ugm-3,89.22954,R,ugm-3
11-01-2019,11:00,17.55592,R,ugm-3,27.40717,R,ugm-3,54.32587,R,ugm-3
11-01-2019,12:00,19.58719,R,ugm-3,23.84224,R,ugm-3,53.87550,R,ugm-3
11-01-2019,13:00,24.23008,R,ugm-3,24.21064,R,ugm-3,61.36290,R,ugm-3
11-01-2019,14:00,19.62346,R,ugm-3,25.98217,R,ugm-3,56.07106,R,ugm-3
11-01-2019,15:00,11.67977,R,ugm-3,19.02161,R,ugm-3,36.93034,R,ugm-3
11-01-2019,16:00,20.27636,R,ugm-3,31.51143,R,ugm-3,62.60142,R,ugm-3
11-01-2019,17:00,41.27818,R,ugm-3,49.52534,R,ugm-3,112.81767,R,ugm-3
11-01-2019,18:00,56.47639,R,ugm-3,58.08542,R,ugm-3,144.68134,R,ugm-3
11-01-2019,19:00,72.14614,R,ugm-3,64.74026,R,ugm-3,175.36279,R,ugm-3
11-01-2019,20:00,78.85656,R,ugm-3,72.57847,R,ugm-3,193.49018,R,ugm-3
11-01-2019,21:00,48.13370,R,ugm-3,63.33367,R,ugm-3,137.13765,R,ugm-3
11-01-2019,22:00,64.09363,R,ugm-3,60.87395,R,ugm-3,159.14948,R,ugm-3
11-01-2019,23:00,30.50523,R,ugm-3,47.18440,R,ugm-3,93.95843,R,ugm-3
11-01-2019,24:00,8.92305,R,ugm-3,27.13295,R,ugm-3,40.81478,R,ugm-3
12-01-2019,01:00,6.68322,R,ugm-3,20.79022,R,ugm-3,31.03768,R,ugm-3
12-01-2019,02:00,2.42146,R,ugm-3,8.91265,R,ugm-3,12.62550,R,ugm-3
12-01-2019,03:00,1.56184,R,ugm-3,5.21433,R,ugm-3,7.60912,R,ugm-3
12-01-2019,04:00,2.50621,R,ugm-3,7.03542,R,ugm-3,10.87822,R,ugm-3
12-01-2019,05:00,2.61517,R,ugm-3,5.51561,R,ugm-3,9.52549,R,ugm-3
12-01-2019,06:00,3.08736,R,ugm-3,6.48252,R,ugm-3,11.21640,R,ugm-3
12-01-2019,07:00,4.75816,R,ugm-3,8.54249,R,ugm-3,15.83823,R,ugm-3
12-01-2019,08:00,6.32000,R,ugm-3,10.71317,R,ugm-3,20.40370,R,ugm-3
12-01-2019,09:00,12.05885,R,ugm-3,17.69559,R,ugm-3,36.18557,R,ugm-3
12-01-2019,10:00,11.36874,R,ugm-3,16.55556,R,ugm-3,33.98738,R,ugm-3
12-01-2019,11:00,13.47541,R,ugm-3,18.56722,R,ugm-3,39.22922,R,ugm-3
12-01-2019,12:00,14.16552,R,ugm-3,17.05815,R,ugm-3,38.77831,R,ugm-3
12-01-2019,13:00,16.56276,R,ugm-3,20.76609,R,ugm-3,46.16197,R,ugm-3
12-01-2019,14:00,18.48782,R,ugm-3,25.76167,R,ugm-3,54.10927,R,ugm-3
12-01-2019,15:00,16.38115,R,ugm-3,23.63729,R,ugm-3,48.75471,R,ugm-3
12-01-2019,16:00,17.03495,R,ugm-3,23.02937,R,ugm-3,49.14925,R,ugm-3
12-01-2019,17:00,18.19725,R,ugm-3,27.67267,R,ugm-3,55.57473,R,ugm-3
12-01-2019,18:00,14.60138,R,ugm-3,23.66077,R,ugm-3,46.04924,R,ugm-3
12-01-2019,19:00,16.05426,R,ugm-3,25.20944,R,ugm-3,49.82562,R,ugm-3
12-01-2019,20:00,12.38575,R,ugm-3,21.19619,R,ugm-3,40.18741,R,ugm-3
12-01-2019,21:00,9.44368,R,ugm-3,14.60362,R,ugm-3,29.08373,R,ugm-3
12-01-2019,22:00,4.86713,R,ugm-3,8.54450,R,ugm-3,16.00733,R,ugm-3
12-01-2019,23:00,5.62989,R,ugm-3,8.84041,R,ugm-3,17.47278,R,ugm-3
12-01-2019,24:00,4.83081,R,ugm-3,7.69837,R,ugm-3,15.10550,R,ugm-3
13-01-2019,01:00,3.15216,R,ugm-3,6.00158,R,ugm-3,10.83483,R,ugm-3
13-01-2019,02:00,1.93979,R,ugm-3,5.90423,R,ugm-3,8.87854,R,ugm-3
13-01-2019,03:00,3.67348,R,ugm-3,8.47525,R,ugm-3,14.10785,R,ugm-3
13-01-2019,04:00,2.69146,R,ugm-3,7.38515,R,ugm-3,11.51201,R,ugm-3
13-01-2019,05:00,3.16429,R,ugm-3,6.66017,R,ugm-3,11.51201,R,ugm-3
13-01-2019,06:00,2.47324,R,ugm-3,5.01106,R,ugm-3,8.80330,R,ugm-3
13-01-2019,07:00,3.52800,R,ugm-3,8.52903,R,ugm-3,13.93856,R,ugm-3
13-01-2019,08:00,8.25625,R,ugm-3,17.86999,R,ugm-3,30.52939,R,ugm-3
13-01-2019,09:00,8.25625,R,ugm-3,21.53803,R,ugm-3,34.19743,R,ugm-3
13-01-2019,10:00,8.51084,R,ugm-3,21.88126,R,ugm-3,34.93104,R,ugm-3
13-01-2019,11:00,12.76626,R,ugm-3,30.42356,R,ugm-3,49.99822,R,ugm-3
13-01-2019,12:00,10.62037,R,ugm-3,19.09815,R,ugm-3,35.38249,R,ugm-3
13-01-2019,13:00,14.22111,R,ugm-3,20.01027,R,ugm-3,41.81567,R,ugm-3
13-01-2019,14:00,13.78466,R,ugm-3,19.32514,R,ugm-3,40.46131,R,ugm-3
13-01-2019,15:00,11.42053,R,ugm-3,14.20321,R,ugm-3,31.71445,R,ugm-3
13-01-2019,16:00,11.12956,R,ugm-3,15.77798,R,ugm-3,32.84308,R,ugm-3
13-01-2019,17:00,11.31142,R,ugm-3,18.43357,R,ugm-3,35.77751,R,ugm-3
13-01-2019,18:00,10.29303,R,ugm-3,16.89136,R,ugm-3,32.67378,R,ugm-3
13-01-2019,19:00,9.23827,R,ugm-3,15.74350,R,ugm-3,29.90864,R,ugm-3
13-01-2019,20:00,8.51084,R,ugm-3,13.13439,R,ugm-3,26.18417,R,ugm-3
13-01-2019,21:00,6.29220,R,ugm-3,9.70806,R,ugm-3,19.35597,R,ugm-3
13-01-2019,22:00,4.51002,R,ugm-3,8.09549,R,ugm-3,15.01075,R,ugm-3
13-01-2019,23:00,2.87332,R,ugm-3,6.65486,R,ugm-3,11.06055,R,ugm-3
13-01-2019,24:00,2.43687,R,ugm-3,4.78467,R,ugm-3,8.52114,R,ugm-3
14-01-2019,01:00,1.94242,R,ugm-3,5.53417,R,ugm-3,8.51251,R,ugm-3
14-01-2019,02:00,1.99098,R,ugm-3,5.61038,R,ugm-3,8.66318,R,ugm-3
14-01-2019,03:00,1.52966,R,ugm-3,3.36096,R,ugm-3,5.70640,R,ugm-3
14-01-2019,04:00,1.60250,R,ugm-3,4.43575,R,ugm-3,6.89288,R,ugm-3
14-01-2019,05:00,2.18523,R,ugm-3,5.23722,R,ugm-3,8.58784,R,ugm-3
14-01-2019,06:00,4.69823,R,ugm-3,11.27131,R,ugm-3,18.47517,R,ugm-3
14-01-2019,07:00,11.72737,R,ugm-3,26.25698,R,ugm-3,44.23870,R,ugm-3
14-01-2019,08:00,16.57128,R,ugm-3,36.90943,R,ugm-3,62.31838,R,ugm-3
14-01-2019,09:00,27.82519,R,ugm-3,51.23661,R,ugm-3,93.90130,R,ugm-3
14-01-2019,10:00,27.57024,R,ugm-3,50.89303,R,ugm-3,93.16682,R,ugm-3
14-01-2019,11:00,21.19667,R,ugm-3,36.25815,R,ugm-3,68.75926,R,ugm-3
14-01-2019,12:00,18.61083,R,ugm-3,35.02515,R,ugm-3,63.56135,R,ugm-3
14-01-2019,13:00,16.13424,R,ugm-3,34.47211,R,ugm-3,59.21093,R,ugm-3
14-01-2019,14:00,17.26327,R,ugm-3,36.07439,R,ugm-3,62.54437,R,ugm-3
14-01-2019,15:00,16.53486,R,ugm-3,35.77879,R,ugm-3,61.13190,R,ugm-3
14-01-2019,16:00,28.77212,R,ugm-3,52.15763,R,ugm-3,96.27426,R,ugm-3
14-01-2019,17:00,28.88138,R,ugm-3,53.40257,R,ugm-3,97.68673,R,ugm-3
14-01-2019,18:00,27.09678,R,ugm-3,58.56838,R,ugm-3,100.11619,R,ugm-3
14-01-2019,19:00,26.76900,R,ugm-3,61.66992,R,ugm-3,102.71514,R,ugm-3
14-01-2019,20:00,22.94485,R,ugm-3,60.97965,R,ugm-3,96.16126,R,ugm-3
14-01-2019,21:00,21.96150,R,ugm-3,65.02988,R,ugm-3,98.70372,R,ugm-3
14-01-2019,22:00,13.54839,R,ugm-3,49.11533,R,ugm-3,69.88924,R,ugm-3
14-01-2019,23:00,12.45578,R,ugm-3,38.86936,R,ugm-3,57.96795,R,ugm-3
14-01-2019,24:00,7.90323,R,ugm-3,29.29564,R,ugm-3,41.41375,R,ugm-3
15-01-2019,01:00,2.77170,R,ugm-3,14.90733,R,ugm-3,19.15721,R,ugm-3
15-01-2019,02:00,1.65329,R,ugm-3,6.59106,R,ugm-3,9.12607,R,ugm-3
15-01-2019,03:00,2.47994,R,ugm-3,12.14925,R,ugm-3,15.95177,R,ugm-3
15-01-2019,04:00,1.16703,R,ugm-3,5.33797,R,ugm-3,7.12739,R,ugm-3
15-01-2019,05:00,1.56820,R,ugm-3,4.77942,R,ugm-3,7.18395,R,ugm-3
15-01-2019,06:00,2.91757,R,ugm-3,10.51659,R,ugm-3,14.99014,R,ugm-3
15-01-2019,07:00,21.73593,R,ugm-3,43.31973,R,ugm-3,76.64769,R,ugm-3
15-01-2019,08:00,42.15895,R,ugm-3,64.83803,R,ugm-3,129.48085,R,ugm-3
15-01-2019,09:00,40.95545,R,ugm-3,66.51367,R,ugm-3,129.31115,R,ugm-3
15-01-2019,10:00,26.69581,R,ugm-3,53.30689,R,ugm-3,94.23989,R,ugm-3
15-01-2019,11:00,16.95840,R,ugm-3,39.72782,R,ugm-3,65.73034,R,ugm-3
15-01-2019,12:00,9.44565,R,ugm-3,25.56600,R,ugm-3,40.04912,R,ugm-3
15-01-2019,13:00,8.24215,R,ugm-3,22.60318,R,ugm-3,35.24097,R,ugm-3
15-01-2019,14:00,13.53025,R,ugm-3,29.14561,R,ugm-3,49.89171,R,ugm-3
15-01-2019,15:00,17.03134,R,ugm-3,41.25641,R,ugm-3,67.37077,R,ugm-3
15-01-2019,16:00,12.07146,R,ugm-3,39.98050,R,ugm-3,58.48982,R,ugm-3
15-01-2019,17:00,9.84681,R,ugm-3,31.28634,R,ugm-3,46.38458,R,ugm-3